Probability
0 0 0 0 0 0 0 0 0 0 0 0 0 0 0 0 0 0 0 0 0 0 0 0 0 0 0 0 0 0 0 0 0 0 0 0 0 0
0 0 0 0 0 0 0 0 0 0 0 0 0 0 0 0 0 0 0 0 0 0 0 0 0 0 0 0 0 0 0 0 0 0 0 0 0 0
0 0 0 0 0 0 0 0 0 0 0 0 0 0 0 0 0 0 0 0 0 0 0 0 0 0 0 0 0 0 0 0 0 0 0 0 0 0
0 0 0 0 0 0 0 0 0 0 0 0 0 0 0 0 0 0 0 0 0 0 0 0 0 0 0 0 0 0 0 0 0 0 0 0 0 0
0 0 0 0 0 0 0 0 0 0 0 0 0 0 0 0 0 0 0 0 0 0 0 0 0 0 0 0 0 0 0 0 0 0 0 0 0 0
0 0 0 0 0 0 0 0 0 0 0 0 0 0 0 0 0 0 0 0 0 0 0 0 0 0 0 0 0 0 0 0 0 0 0 0 0 0
0 0 0 0 0 0 0 0 0 0 0 0 0 0 0 0 0 0 0 0 0 0 0 0 0 0 0 0 0 0 0 0 0 0 0 0 0 0
0 0 0 0 0 0 0 0 0 0 0 0 0 0 0 0 0 0 0 0 0 0 0 0 0 0 0 0 0 0 0 0 0 0 0 0 0 0
0 0 0 0 0 0 0 0 0 0 0 0 0 0 0 0 0 0 0 0 0 0 0 0 0 0 0 0 0 0 0 0 0 0 0 0 0 0
0 0 0 0 0 0 0 0 0 0 0 0 0 0 0 0 0 0 0 0 0 0 0 0 0 0 0 0 0 0 0 0 0 0 0 0 0 0
0 0 0 0 0 0 0 0 0 0 0 0 0 0 0 0 0 0 0 0 0 0 0 0 0 0 0 0 0 0 0 0 0 0 0 0 0 0
0 0 0 0 0 0 0 0 0 0 0 0 0 0 0 0 0 0 0 0 0 0 0 0 0 0 0 0 0 0 0 0 0 0 0 0 0 0
0 0 0 0 0 0 0 0 0 0 0 0 0 0 0 0 0 0 0 0 0 0 0 0 0 0 0 0 0 0 0 0 0 0 0 0 0 0
0 0 0 0 0 0 0 0 0 0 0 0 0 0 0 0 0 0 0 0 0 0 0 0 0 0 0 0 0 0 0 0 0 0 0 0 0 0
0 0 0 0 0 0 0 0 0 0 0 0 0 0 0 0 0 0 0 0 0 0 0 0 0 0 0 0 0 0 0 0 0 0 0 0 0 0
0 0 0 0 0 0 0 0 0 0 0 0 0 0 0 0 0 0 0 0 0 0 0 0 0 0 0 0 0 0 0 0 0 0 0 0 0 0
0 0 0 0 0 0 0 0 0 0 0 0 0 0 0 0 0 0 0 0 0 0 0 0 0 0 0 0 0 0 0 0 0 0 0 0 0 0
0 0 0 0 0 0 0 0 0 0 0 0 0 0 0 0 0 0 0 0 0 0 0 0 0 0 0 0 0 0 0 0 0 0 0 0 0 0
0 0 0 0 0 0 0 0 0 0 0 0 0 0 0 0 0 0 0 0 0 0 0 0 0 0 0 0 0 0 0 0 0 0 0 0 0 0
0 0 0 0 0 0 0 0 0 0 0 0 0 0 0 0 0 0 0 0 0 0 0 0 0 0 0 0 0 0 0 0 0 0 0 0 0 0
0 0 0 0 0 0 0 0 0 0 0 0 0 0 0 0 0 0 0 0 0 0 0 0 0 0 0 0 0 0 0 0 0 0 0 0 0 0
0 0 0 0 0 0 0 0 0 0 0 0 0 0 0 0 0 0 0 0 0 0 0 0 0 0 0 0 0 0 0 0 0 0 0 0 0 0
0 0 0 0 0 0 0 0 0 0 0 0 0 0 0 0 0 0 0 0 0 0 0 0 0 0 0 0 0 0 0 0 0 0 0 0 0 0
Height
5745 5747 5750 5751 5752 5753 5754 5754 5754 5753 5752 5749 5747 5744 5741 5738 5734 5730 5725 5721 5715 5710 5704 5698 5692 5685 5678 5671 5663 5654 5645 5637 5627 5617 5607 5597 5586 5576
5736 5739 5741 5743 5744 5745 5746 5746 5745 5745 5744 5742 5739 5737 5733 5730 5726 5722 5717 5712 5707 5702 5696 5690 5683 5676 5669 5661 5653 5644 5635 5625 5615 5605 5594 5584 5573 5562
5728 5731 5733 5735 5736 5737 5738 5738 5737 5736 5735 5734 5731 5728 5725 5722 5718 5714 5709 5704 5699 5693 5687 5681 5674 5667 5659 5651 5642 5633 5624 5614 5604 5593 5582 5571 5560 5550
5720 5722 5725 5727 5728 5729 5730 5730 5729 5728 5727 5726 5723 5720 5717 5714 5710 5706 5701 5696 5690 5684 5678 5672 5665 5657 5649 5641 5632 5622 5613 5602 5592 5581 5570 5560 5549 5537
5711 5714 5717 5719 5720 5721 5722 5722 5721 5720 5719 5718 5716 5713 5709 5706 5702 5698 5693 5688 5682 5676 5669 5663 5656 5648 5639 5631 5621 5612 5601 5591 5581 5569 5558 5547 5537 5526
5703 5706 5708 5711 5712 5713 5713 5714 5713 5712 5711 5710 5708 5705 5702 5698 5694 5690 5685 5679 5674 5667 5660 5654 5646 5638 5630 5621 5612 5601 5591 5580 5569 5558 5547 5536 5525 5515
5695 5698 5700 5702 5703 5705 5705 5705 5705 5704 5703 5701 5699 5696 5693 5690 5686 5682 5677 5671 5666 5659 5652 5645 5638 5629 5620 5610 5600 5590 5580 5569 5558 5547 5536 5526 5515 5505
5687 5689 5692 5694 5695 5696 5697 5697 5697 5696 5695 5693 5691 5688 5685 5682 5678 5673 5668 5664 5658 5653 5644 5636 5628 5619 5610 5600 5590 5580 5570 5559 5548 5537 5526 5516 5506 5496
5678 5681 5684 5686 5687 5688 5689 5689 5689 5688 5687 5685 5683 5680 5677 5673 5670 5665 5660 5654 5649 5643 5635 5627 5618 5609 5599 5590 5580 5570 5560 5549 5538 5528 5517 5507 5497 5487
5670 5673 5675 5677 5679 5680 5680 5681 5680 5679 5678 5677 5675 5672 5669 5665 5661 5657 5651 5646 5640 5633 5626 5619 5610 5600 5590 5580 5570 5560 5550 5540 5529 5519 5509 5499 5489 5479
5662 5665 5667 5669 5671 5672 5672 5672 5672 5671 5670 5668 5666 5663 5660 5657 5652 5648 5643 5638 5632 5624 5617 5609 5601 5592 5582 5571 5561 5551 5541 5531 5521 5511 5501 5491 5481 5472
5654 5657 5659 5661 5662 5663 5664 5664 5664 5663 5662 5660 5658 5655 5652 5648 5644 5640 5635 5629 5622 5616 5608 5600 5591 5583 5575 5565 5554 5544 5534 5523 5513 5503 5494 5484 5474 5465
5645 5648 5650 5652 5654 5655 5656 5656 5656 5655 5654 5652 5650 5647 5644 5641 5636 5631 5626 5620 5613 5606 5599 5591 5582 5574 5565 5557 5547 5537 5527 5517 5507 5496 5487 5477 5468 5459
5636 5639 5642 5644 5645 5646 5647 5648 5648 5647 5646 5644 5642 5640 5636 5633 5628 5623 5617 5611 5604 5597 5589 5581 5574 5566 5558 5549 5540 5530 5520 5510 5501 5491 5481 5472 5462 5453
5628 5631 5633 5635 5637 5638 5639 5639 5639 5639 5638 5636 5634 5632 5628 5624 5620 5614 5608 5602 5595 5588 5580 5573 5565 5557 5549 5541 5533 5524 5515 5505 5495 5485 5476 5466 5458 5449
5619 5622 5624 5626 5628 5630 5631 5631 5631 5631 5630 5629 5626 5624 5620 5616 5612 5606 5600 5594 5587 5580 5572 5565 5557 5550 5542 5534 5525 5517 5508 5499 5490 5480 5471 5461 5452 5444
5611 5614 5616 5619 5620 5622 5623 5623 5624 5623 5622 5620 5618 5615 5612 5608 5604 5598 5592 5585 5579 5572 5565 5557 5550 5542 5535 5527 5519 5510 5502 5493 5484 5475 5466 5457 5448 5440
5603 5606 5608 5611 5613 5614 5615 5616 5616 5615 5614 5612 5610 5608 5604 5600 5595 5590 5584 5578 5571 5564 5557 5551 5544 5536 5528 5521 5514 5506 5497 5488 5479 5470 5462 5453 5445 5436
5594 5598 5600 5603 5605 5606 5607 5608 5608 5607 5606 5605 5602 5600 5596 5592 5588 5582 5576 5570 5563 5557 5551 5545 5538 5531 5524 5516 5509 5501 5493 5484 5475 5466 5457 5448 5440 5432
5586 5590 5592 5595 5597 5598 5599 5600 5600 5599 5598 5597 5595 5592 5588 5584 5580 5575 5569 5563 5557 5551 5545 5538 5532 5525 5518 5511 5504 5496 5488 5479 5471 5463 5454 5445 5436 5428
5578 5581 5584 5587 5589 5590 5591 5592 5592 5591 5590 5589 5587 5584 5580 5577 5572 5567 5561 5556 5550 5544 5539 5532 5526 5520 5513 5505 5498 5490 5482 5474 5467 5459 5451 5444 5435 5427
5570 5573 5576 5579 5581 5582 5583 5584 5584 5584 5583 5581 5579 5576 5573 5569 5565 5560 5554 5549 5544 5538 5533 5527 5521 5514 5508 5501 5493 5485 5477 5470 5462 5455 5447 5440 5432 5424
5562 5565 5568 5571 5573 5575 5576 5577 5577 5576 5575 5573 5571 5569 5565 5562 5557 5553 5548 5543 5537 5532 5527 5521 5515 5509 5503 5496 5488 5481 5473 5466 5459 5451 5444 5436 5429 5422
Wind_Speed
41 40 38 37 36 35 35 35 35 35 35 36 36 37 38 40 40 41 42 43 44 45 46 47 48 50 51 53 54 56 58 60 61 63 65 66 65 65
40 39 38 37 36 36 36 36 36 35 36 36 36 37 39 40 40 41 41 42 43 44 46 48 49 50 52 54 56 57 59 61 63 65 66 65 65 64
39 38 38 37 36 35 35 35 35 35 35 36 37 38 39 40 40 40 41 42 43 45 47 48 50 51 52 55 57 59 61 62 64 65 66 65 64 62
39 37 36 36 35 34 34 34 35 36 36 36 37 38 39 39 39 40 41 43 45 46 47 49 50 51 53 56 58 60 62 63 64 65 65 63 62 61
38 36 36 35 34 34 34 35 35 36 36 36 37 38 39 39 40 41 42 43 45 46 48 49 50 52 55 58 59 61 62 63 64 64 63 62 61 59
38 37 36 35 35 35 35 35 36 36 36 37 37 38 39 39 40 41 42 43 44 46 48 49 51 54 56 58 60 61 62 62 62 62 61 60 59 56
38 37 36 36 35 35 35 36 36 36 36 37 37 38 39 39 40 41 42 43 45 46 48 50 52 55 57 58 60 61 61 61 61 61 59 58 55 54
37 37 36 36 36 36 35 35 36 36 36 36 37 38 39 40 40 41 42 44 45 46 49 51 53 55 57 58 60 59 59 60 60 59 57 55 53 52
37 37 36 36 36 35 35 36 36 36 36 36 37 37 38 39 40 41 43 44 45 47 49 51 53 55 57 58 58 58 59 59 58 57 55 53 52 51
36 36 35 35 35 34 35 34 34 35 35 36 36 37 37 38 40 41 42 44 46 48 49 51 53 55 56 57 57 57 57 57 56 55 53 52 51 51
37 36 35 35 34 34 34 34 35 35 35 35 35 36 37 38 40 41 42 44 46 48 50 51 53 53 54 54 55 55 56 55 53 52 52 51 50 49
37 37 36 35 35 35 34 34 34 33 33 33 35 36 36 38 39 40 42 44 46 48 49 51 52 52 51 51 53 53 53 52 52 51 50 50 49 48
37 36 35 35 35 34 34 33 33 32 32 33 34 35 36 37 39 40 42 44 46 48 49 50 50 49 50 50 50 51 50 50 50 49 49 48 47 46
35 35 34 34 34 34 33 33 32 32 32 33 34 35 36 37 39 41 43 45 46 47 48 48 48 48 49 49 49 48 48 49 48 47 47 46 45 44
34 33 33 33 33 32 32 32 32 32 32 32 34 35 35 37 39 41 43 44 45 46 47 47 47 48 48 47 47 46 46 46 47 46 45 44 43 43
33 33 33 32 32 31 31 31 31 31 32 33 33 34 36 37 39 40 42 43 45 46 46 46 46 46 46 45 45 45 46 46 45 44 44 44 43 43
33 33 32 31 31 31 30 30 31 31 31 32 32 33 35 37 39 40 42 43 45 44 44 44 44 44 44 43 43 44 45 45 44 44 43 43 42 42
31 31 31 31 30 30 30 30 29 29 29 30 31 34 36 37 38 39 41 43 43 42 41 40 40 40 41 41 42 43 43 43 43 42 41 41 41 42
31 30 30 29 28 28 28 27 27 28 29 31 33 34 35 36 36 38 40 41 40 38 37 37 38 38 38 40 42 42 42 43 42 41 41 41 40 40
31 31 30 29 28 28 27 26 26 27 29 30 32 33 33 34 36 38 39 39 37 35 35 36 37 37 38 39 40 41 42 41 40 39 40 40 39 38
32 30 30 29 28 27 25 25 26 27 28 30 31 31 32 34 36 36 36 36 34 34 34 35 35 35 37 39 40 40 41 40 38 38 38 37 36 35
31 29 28 28 27 26 25 25 26 26 27 28 28 29 31 33 34 34 35 34 33 32 33 33 34 35 36 38 39 39 39 38 38 38 37 36 34 33
30 29 28 26 25 24 25 25 26 26 27 27 28 28 30 31 32 33 33 32 31 31 31 32 33 34 35 36 37 37 36 36 36 37 36 34 33 32
Wind_Direction
252 255 258 261 265 268 272 276 280 283 286 289 292 295 297 299 301 303 305 306 307 309 310 311 313 314 315 316 316 317 317 317 317 317 318 318 317 317
252 254 257 260 263 267 272 276 280 283 287 289 291 294 297 299 301 303 305 306 308 309 311 312 313 314 315 316 317 317 317 317 317 318 319 318 318 318
252 254 257 259 263 268 272 276 280 284 287 289 292 294 297 300 302 304 305 307 309 310 311 312 314 314 315 316 317 318 318 318 318 319 319 319 320 320
250 254 257 260 263 268 271 275 280 283 286 289 292 295 299 301 303 304 306 308 309 311 312 313 314 315 316 317 318 318 318 319 319 320 320 320 320 320
249 252 256 260 263 268 271 275 279 283 286 290 293 296 298 301 303 305 307 309 310 311 312 313 315 316 317 318 318 319 319 320 320 321 321 321 321 321
249 251 256 260 264 268 271 275 279 283 286 290 293 296 298 301 303 306 308 309 311 312 313 314 316 317 318 319 319 319 320 320 321 322 322 322 322 322
249 252 256 260 264 268 272 275 279 282 286 289 293 296 299 301 304 306 307 309 311 312 314 315 317 318 319 319 319 320 321 321 322 323 323 323 323 323
250 252 256 260 264 268 273 276 279 283 286 289 293 296 299 302 304 306 308 310 311 313 314 316 317 318 319 319 320 321 322 323 324 324 325 325 325 325
250 253 258 262 266 269 273 277 281 283 287 290 294 297 300 302 304 307 309 311 312 314 315 317 318 319 319 320 321 322 323 324 325 325 326 326 326 325
251 255 260 263 268 271 275 278 281 285 288 291 294 296 299 302 305 307 309 311 313 315 316 318 318 319 320 321 322 323 324 325 326 326 327 327 327 326
252 257 260 264 268 271 275 278 281 285 288 291 295 298 300 303 306 308 310 312 314 315 317 318 319 320 322 322 323 324 325 326 327 327 328 328 328 328
252 257 261 264 267 271 274 277 280 284 287 291 295 298 301 303 306 308 311 312 314 315 317 318 319 321 323 324 324 325 326 327 328 329 330 330 330 330
252 256 259 262 265 268 272 276 279 283 287 291 294 298 301 303 306 309 311 313 315 316 318 319 320 322 324 325 326 326 328 329 330 330 331 331 332 332
251 254 258 262 263 266 270 274 278 282 286 291 295 298 301 304 307 309 312 314 315 316 318 319 321 323 324 326 327 328 329 330 331 331 332 333 333 334
251 253 258 261 263 265 268 273 277 282 286 291 295 298 300 304 307 309 312 314 315 316 318 319 321 324 325 326 328 329 330 331 332 332 333 334 335 335
252 254 257 260 262 265 269 273 278 282 286 291 295 298 301 304 307 309 312 313 315 317 318 320 322 324 325 327 329 331 332 333 334 334 335 335 336 337
252 255 257 260 263 266 269 273 278 282 286 290 294 298 302 305 308 310 312 313 315 317 319 320 322 324 326 328 330 332 334 335 335 335 335 336 337 337
249 253 256 261 264 266 270 273 277 280 284 288 294 298 302 306 309 311 312 314 317 319 320 322 323 325 327 330 331 333 334 335 336 336 336 337 337 338
249 251 255 258 262 265 269 272 275 280 284 290 295 299 302 305 309 312 315 317 319 319 321 323 325 326 328 329 330 332 334 335 336 336 337 338 339 340
248 250 253 257 261 265 267 271 276 282 287 292 296 299 303 306 310 313 316 318 319 320 322 324 325 327 328 329 331 333 335 335 336 337 338 339 341 343
247 250 253 256 260 261 264 270 276 282 287 292 296 300 303 307 311 314 317 319 319 320 322 324 325 326 328 330 332 334 335 336 337 338 340 341 342 344
245 248 251 254 257 258 263 269 276 281 287 293 297 300 304 308 311 314 318 319 320 321 322 324 325 327 329 331 333 334 335 337 337 339 340 342 344 347
241 243 248 250 253 258 263 269 275 281 287 292 298 301 305 309 311 315 318 318 320 322 323 324 326 328 329 332 334 336 337 338 339 341 343 345 348 351